GFSMW_250_spd_021.txt.gz
Wind_Speed
36 36 38 37 44 44 42 45 50 55 57 59 60 62 65 68 67 68 68 67 66 64 63 64 63 65 67 69 71 73 74 76 79 80 80 79 79 79 79 82 85 87 88
25 32 35 36 40 43 38 47 48 52 51 51 55 55 57 58 58 56 55 54 56 55 54 57 62 64 67 70 72 72 75 77 79 78 77 76 78 81 82 85 89 92 96
42 43 38 37 39 42 42 43 48 51 52 51 51 51 47 45 48 50 50 50 50 53 57 62 66 69 72 74 76 77 77 77 77 79 78 77 78 82 87 93 97 101 105
40 38 41 39 38 40 37 39 43 43 44 45 40 41 42 43 42 44 48 52 56 60 62 67 69 72 75 78 78 78 79 79 80 82 85 88 89 91 93 98 100 104 108
31 33 33 33 32 31 33 34 35 35 36 39 41 40 39 41 44 46 51 55 58 62 67 71 75 79 82 81 79 79 81 83 87 91 94 97 100 100 99 97 98 99 100
25 26 29 26 27 27 28 29 33 36 38 38 41 42 44 49 51 54 58 62 66 70 75 79 82 85 82 82 82 84 89 94 96 99 102 103 97 96 96 98 98 95 100
24 30 31 24 25 27 28 31 34 37 42 44 45 45 49 54 58 60 64 69 73 77 81 84 85 83 81 85 89 93 96 101 105 108 108 103 98 98 104 104 99 98 97
35 34 25 25 28 29 28 31 35 41 46 50 51 51 54 57 61 65 69 73 78 82 86 87 84 84 84 88 95 98 103 108 111 109 107 103 100 100 105 109 101 93 87
35 35 29 29 28 30 33 35 40 46 51 55 55 55 58 62 67 69 72 77 83 87 87 85 85 85 90 92 98 103 108 112 110 106 105 106 106 107 105 105 99 89 87
40 30 27 29 32 35 38 39 42 48 53 56 56 58 62 67 67 71 77 83 88 89 89 88 87 90 95 100 103 108 112 107 106 105 108 108 108 109 106 100 96 94 88
29 29 28 32 37 41 44 46 46 48 53 58 60 63 61 66 71 77 81 86 90 90 91 90 92 94 99 105 109 112 109 107 106 108 109 109 103 102 100 98 94 90 87
30 30 33 37 40 44 46 51 50 50 55 64 67 63 66 72 77 82 86 89 92 92 93 92 94 98 104 108 112 108 105 105 107 109 110 107 103 99 97 93 87 83 76
31 34 36 40 44 47 50 52 54 58 62 67 68 66 73 78 84 87 89 95 93 93 94 96 100 104 109 111 107 104 104 105 106 104 101 99 98 94 89 84 80 74 69
34 35 38 41 44 48 52 56 60 64 65 66 70 74 77 84 87 92 95 98 95 96 97 102 107 108 108 105 104 103 105 104 103 99 97 94 90 85 81 77 72 68 66
45 42 44 47 48 50 55 59 62 65 69 73 77 80 84 90 91 94 98 97 98 98 104 108 109 107 103 102 104 106 104 103 101 99 95 89 83 80 77 74 69 65 63
53 53 51 52 56 57 58 61 66 68 74 80 84 87 91 92 96 99 98 99 101 106 110 111 107 103 103 103 105 102 101 97 96 95 90 82 78 74 71 69 66 62 59
53 58 60 60 60 60 64 69 71 75 80 85 89 93 95 97 100 100 101 103 109 111 110 108 106 103 105 105 104 103 99 97 93 89 85 81 77 72 68 65 63 60 56
54 57 63 66 67 69 72 74 76 81 86 90 93 95 97 99 99 102 106 110 112 111 109 108 107 104 105 105 102 98 97 95 91 84 80 79 74 69 66 63 60 55 53
57 60 64 67 71 75 78 81 84 89 92 94 97 98 97 98 101 108 111 113 113 112 109 108 106 106 104 101 100 96 89 88 85 81 77 74 70 66 62 60 58 54 50
65 67 70 70 74 77 82 87 91 94 95 99 100 97 99 103 110 113 115 114 113 111 111 110 109 106 101 98 97 94 87 83 80 76 71 69 65 61 59 57 55 51 48
68 68 72 74 77 82 86 90 94 95 98 102 99 100 104 110 114 116 115 113 113 112 112 110 108 106 100 95 92 88 82 78 75 72 68 66 63 59 56 54 52 49 45
73 75 77 80 85 89 93 95 95 98 104 100 102 106 112 116 118 117 115 113 112 110 110 107 103 99 95 92 87 82 80 77 70 68 65 62 60 56 54 51 48 47 44
76 80 83 86 91 94 95 95 99 104 102 103 107 111 117 119 119 114 113 113 112 109 107 103 98 94 89 83 80 78 76 74 69 66 63 60 57 53 51 49 46 42 41
81 84 89 92 94 96 97 100 104 101 103 107 111 117 120 120 115 113 112 111 111 108 103 99 94 88 82 78 74 72 72 70 67 62 60 58 54 51 48 45 43 41 39
86 89 91 95 97 98 100 104 100 104 107 112 116 120 121 115 114 113 112 110 107 105 101 96 89 81 79 74 71 68 65 65 63 60 56 54 50 47 45 42 40 39 37
90 92 94 96 98 101 103 101 104 109 113 117 120 123 117 116 112 111 108 106 104 101 97 91 84 81 74 72 68 64 61 59 59 56 54 51 48 44 43 40 39 38 37

GFSMW_250_spd_024.txt.gz
Wind_Speed
44 45 53 54 48 46 49 53 57 64 65 62 59 59 61 63 67 70 69 71 72 72 70 70 70 69 66 66 67 72 75 79 82 84 85 84 83 81 80 81 84 88 90
45 42 46 49 51 50 54 55 53 51 51 52 53 59 61 61 62 64 66 67 66 65 65 65 62 62 64 68 72 76 80 84 86 85 81 79 81 85 90 91 91 94 99
28 29 34 37 37 39 40 42 45 46 49 51 53 56 57 59 59 60 60 60 61 62 61 60 62 64 68 74 78 83 87 88 85 82 81 82 85 89 93 96 101 106 106
41 38 36 42 44 43 36 40 41 41 43 47 49 49 51 50 52 54 58 60 62 60 63 65 67 70 73 78 82 87 89 88 86 86 86 89 92 95 98 100 105 104 102
43 41 41 41 40 31 30 37 37 38 44 43 42 43 45 48 53 56 59 60 62 66 69 70 70 72 76 82 87 89 88 88 88 89 93 97 101 104 106 108 106 101 101
40 41 35 32 28 28 31 32 36 35 34 38 41 44 47 52 55 59 61 62 64 65 66 68 70 75 81 86 89 90 89 88 90 92 96 101 105 109 112 110 104 104 103
38 38 38 29 23 23 27 32 34 36 36 40 44 45 48 51 53 56 59 63 65 65 66 70 76 80 84 89 93 91 90 91 92 96 101 108 110 111 108 105 104 104 105
34 31 25 23 26 25 30 35 39 40 43 44 46 49 51 53 56 60 61 63 63 64 70 77 82 85 89 92 95 93 94 95 98 105 109 110 109 106 106 107 108 107 109
29 27 30 30 25 31 33 36 40 44 46 47 49 53 56 59 62 64 66 65 68 72 76 82 86 89 93 96 92 94 97 101 106 107 107 105 105 105 108 109 108 104 96
28 34 37 33 34 34 33 37 42 46 49 52 55 58 59 62 64 66 66 70 74 78 83 88 89 94 97 96 96 98 102 107 108 104 103 101 101 104 107 108 106 101 94
24 27 28 34 36 36 37 40 43 48 52 55 59 62 64 65 65 68 73 78 82 85 89 92 94 98 97 99 101 106 108 106 104 103 101 102 103 104 104 101 98 94 91
26 29 34 36 37 39 40 43 47 49 53 58 64 66 66 68 70 74 79 83 86 89 94 97 98 96 99 104 106 106 105 103 102 102 102 104 104 103 101 99 96 92 87
30 33 34 35 37 42 47 49 51 53 57 61 63 65 69 70 73 78 84 87 90 95 96 95 95 98 104 107 105 104 102 101 101 103 104 104 105 104 100 96 92 87 83
32 33 34 35 39 45 49 52 53 56 59 61 63 67 69 72 78 84 88 90 95 95 92 95 97 105 104 103 103 102 102 101 101 101 100 100 100 98 94 90 86 80 76
34 34 38 42 45 49 50 52 56 61 62 64 67 70 74 80 85 88 92 94 97 93 93 99 103 103 103 102 103 105 104 104 102 101 99 98 96 92 88 85 79 74 70
41 43 46 47 49 50 53 57 62 63 64 68 72 77 82 86 90 91 92 99 96 96 98 103 107 108 105 105 104 104 104 103 101 100 97 95 92 87 82 78 74 69 65
47 50 52 52 54 57 59 65 66 67 70 73 78 82 87 91 90 92 98 96 98 103 105 109 112 108 106 106 107 107 105 102 99 97 94 91 86 83 79 75 70 66 61
54 56 56 58 60 64 67 69 70 72 76 80 84 89 92 93 94 99 97 98 103 106 109 114 111 108 108 108 107 106 101 98 96 93 89 85 81 77 74 70 66 62 58
58 58 59 61 64 67 70 73 77 80 83 87 91 94 95 96 101 99 95 102 106 110 114 113 110 110 109 108 106 103 99 96 91 87 82 79 75 73 70 65 62 58 54
59 60 60 62 67 70 73 78 83 85 89 92 94 97 98 102 100 102 109 111 113 115 115 111 112 113 110 108 106 102 96 90 84 79 77 74 71 67 64 61 58 55 51
61 62 64 67 70 73 78 83 87 91 93 95 96 96 102 102 101 105 110 114 117 117 115 113 113 112 110 107 102 96 89 83 78 73 70 68 65 63 61 58 54 52 48
64 66 69 73 76 80 84 89 93 94 96 96 98 101 102 102 106 110 114 119 119 119 114 114 113 110 106 103 96 89 84 81 77 70 67 65 63 60 57 53 50 48 46
67 69 73 78 83 87 90 93 94 97 98 99 102 102 102 106 108 112 118 121 120 116 116 112 108 105 102 95 87 83 79 78 74 68 63 61 58 56 53 50 47 46 44
70 74 79 83 87 91 93 95 97 98 99 101 101 101 105 108 112 116 119 119 117 117 114 110 105 100 93 86 82 79 75 73 70 66 60 56 55 52 49 46 44 43 41
76 80 84 88 91 93 96 97 98 99 102 100 101 105 108 111 115 117 120 118 117 114 110 106 100 93 87 82 78 72 70 67 65 61 56 52 51 49 47 45 43 41 39
82 85 89 92 94 96 96 97 100 101 99 102 105 108 110 115 116 118 117 117 112 109 105 99 93 88 83 78 74 69 66 63 59 57 54 52 49 47 45 43 40 39 37

GFSMW_250_spd_027.txt.gz
Wind_Speed
52 55 53 53 53 49 49 53 57 57 60 62 64 69 73 70 69 71 65 70 71 73 73 73 70 69 70 72 71 73 74 77 79 83 87 90 93 96 96 93 91 88 89
49 60 58 52 59 56 51 54 55 62 64 61 61 64 67 67 64 61 63 66 67 66 64 65 67 69 72 75 75 77 81 84 86 87 89 94 97 99 97 95 93 92 94
41 47 51 58 50 54 53 55 59 59 60 62 60 56 54 54 57 59 61 61 59 60 63 67 71 74 76 76 77 79 75 75 81 88 93 95 98 99 97 96 96 98 101
35 38 49 58 57 58 55 52 51 53 50 49 48 49 52 50 54 55 54 55 59 64 68 71 74 75 76 76 75 73 76 82 87 91 94 98 98 96 95 97 100 105 109
36 38 39 43 43 45 47 47 45 42 42 40 41 42 44 46 47 48 53 57 61 62 61 64 67 69 71 70 74 78 81 86 91 93 96 96 96 98 100 103 108 110 110
38 38 40 45 45 46 47 37 34 34 37 38 34 40 45 47 49 53 56 60 62 65 67 68 67 65 70 73 77 81 86 91 93 95 94 94 97 102 108 109 109 107 107
38 36 36 38 41 43 41 33 31 31 37 37 40 45 48 50 54 57 59 63 66 67 69 68 67 71 75 79 82 86 89 92 93 91 94 100 105 109 109 106 104 105 106
39 38 34 34 33 31 25 29 29 32 38 42 46 48 51 54 56 59 63 65 68 70 70 68 72 76 81 83 86 92 91 88 91 95 101 104 108 108 107 107 106 106 107
35 34 30 30 28 26 28 32 34 39 44 45 47 50 53 55 58 60 64 68 69 68 69 72 77 82 85 85 91 92 90 91 96 102 105 104 105 107 108 108 106 107 106
29 28 29 29 32 33 33 33 39 42 45 47 51 52 53 55 59 64 67 66 68 70 73 79 83 86 88 91 95 92 92 96 102 106 104 105 106 107 109 111 110 106 103
29 25 23 24 28 30 33 38 42 46 47 48 50 51 54 58 63 64 65 69 72 75 79 84 86 88 92 96 93 95 98 102 105 106 105 106 107 109 111 110 107 103 97
24 25 27 29 30 34 39 44 46 46 47 50 52 55 60 63 66 68 70 72 76 81 85 87 89 92 97 94 96 101 103 105 106 104 105 108 109 109 107 104 100 96 93
26 30 30 32 34 37 40 43 47 51 54 55 58 60 65 69 68 69 74 79 84 87 90 91 94 98 94 96 101 102 104 106 105 105 108 109 108 106 104 100 96 93 88
29 28 30 34 37 38 41 43 52 55 58 60 62 65 70 70 71 74 80 85 87 89 92 94 98 95 96 101 102 107 107 105 105 107 108 106 104 101 99 95 90 87 82
27 31 34 38 38 42 47 52 55 58 61 63 66 70 71 72 74 79 84 87 89 90 92 97 94 97 101 102 106 106 106 107 108 107 105 104 102 96 91 86 81 78 77
34 36 38 40 43 48 51 54 58 59 62 66 70 72 74 77 81 85 87 89 90 92 97 97 97 100 101 104 108 110 110 110 109 106 105 101 97 90 85 81 77 74 73
37 39 43 45 49 52 54 57 59 62 65 69 72 75 78 82 87 89 90 93 93 96 97 99 104 104 109 112 114 113 112 110 108 107 105 99 92 85 81 79 75 71 68
41 44 48 51 53 55 58 60 63 66 70 73 75 79 84 89 91 93 94 96 97 98 98 104 104 108 113 115 115 114 112 113 110 107 101 91 86 83 79 76 72 68 65
46 49 52 54 56 59 62 63 66 71 74 77 80 84 89 92 94 96 97 98 99 98 104 105 107 112 116 117 116 116 114 112 109 102 92 86 84 81 76 72 68 64 61
49 52 54 57 60 63 65 67 71 75 79 82 86 90 93 96 97 97 99 99 98 104 106 108 112 116 118 121 120 117 113 108 102 94 86 82 79 75 72 68 64 61 57
54 55 57 60 63 66 68 71 75 79 83 87 91 94 96 97 99 101 99 100 104 107 108 111 115 119 121 121 118 114 110 104 96 90 83 79 74 71 67 62 59 55 53
57 60 64 66 69 72 74 78 81 85 88 92 95 97 99 100 101 100 101 105 108 109 111 114 118 121 118 116 114 109 104 98 92 87 80 75 69 66 62 57 54 52 50
61 64 67 70 73 75 78 82 86 90 94 97 98 98 99 100 99 101 106 109 110 110 113 117 119 117 114 113 109 103 97 92 88 81 76 71 65 62 58 54 52 49 48
65 68 71 75 78 79 82 85 88 92 95 97 97 97 100 100 102 105 110 109 110 112 115 118 117 113 111 109 101 95 92 87 81 76 73 68 62 59 56 53 50 48 45
70 73 76 79 81 83 85 88 92 94 95 96 97 99 100 102 107 111 110 109 112 114 116 116 114 111 105 101 94 89 85 81 75 70 70 64 60 57 54 52 49 46 45
76 79 81 82 83 85 88 92 92 94 96 99 100 101 103 108 110 110 109 113 115 116 116 113 111 106 98 92 88 85 82 77 71 68 66 61 58 55 53 51 49 44 42

GFSMW_250_spd_030.txt.gz
Wind_Speed
43 41 44 39 48 52 56 57 59 62 60 62 60 65 68 69 72 75 76 76 73 73 67 65 65 67 68 70 71 73 75 75 78 82 83 83 83 83 84 88 92 96 99
44 41 39 42 43 48 47 52 54 56 55 58 61 67 72 78 81 79 78 75 68 66 63 62 63 64 65 68 69 69 73 76 77 77 77 78 82 85 89 94 97 99 101
43 46 49 49 47 50 55 58 58 60 65 66 63 59 65 70 72 68 62 56 57 57 57 58 60 63 67 71 74 77 79 76 74 77 82 83 86 89 94 96 97 97 100
34 36 38 42 42 44 47 51 48 45 48 51 56 58 58 56 55 54 54 52 54 56 57 61 64 68 71 74 76 76 76 76 79 83 87 90 91 95 95 95 97 101 105
39 40 37 36 32 34 35 41 45 49 54 51 55 55 52 51 52 50 50 54 56 58 61 65 68 71 75 76 75 74 74 78 83 87 89 90 95 98 96 96 101 106 111
37 36 38 37 37 37 37 39 29 39 47 50 49 45 47 48 49 50 53 57 59 63 65 68 70 73 76 74 74 74 79 83 86 88 90 95 97 97 100 103 109 112 114
39 38 37 38 40 41 40 37 37 44 44 41 42 45 44 46 50 53 56 59 63 65 66 68 72 74 71 74 76 80 83 84 86 90 96 97 97 100 105 110 111 111 109
36 38 38 37 39 37 39 41 36 37 40 38 40 44 45 48 53 56 58 62 64 64 67 71 72 73 75 78 81 85 86 87 89 96 96 96 101 106 110 111 109 108 109
35 37 38 37 40 37 35 36 29 34 38 38 43 45 47 51 55 59 61 64 64 67 70 72 73 76 79 82 84 86 88 91 96 97 98 102 107 109 109 108 110 112 111
38 39 38 36 35 34 35 32 34 37 36 40 42 45 51 55 56 60 62 64 65 69 72 72 74 79 83 83 86 88 91 96 98 98 104 106 106 109 111 112 113 113 110
37 36 33 31 32 33 28 28 31 34 39 42 48 50 52 55 60 62 63 65 68 72 72 74 79 84 86 86 89 93 96 99 100 104 106 106 109 112 113 112 111 109 106
33 34 30 29 25 25 27 30 34 39 42 43 46 48 54 58 61 64 66 69 72 73 76 80 84 87 91 91 94 98 99 99 104 105 106 109 112 113 111 111 108 104 97
33 31 29 25 26 29 30 33 36 41 43 44 50 55 57 59 63 67 69 73 76 78 81 86 89 93 96 97 99 101 99 104 107 107 109 112 114 112 111 107 103 98 92
32 31 26 26 30 32 31 37 41 45 47 52 57 60 62 65 68 70 74 79 79 82 86 90 94 97 100 101 103 100 105 108 109 111 113 116 114 111 106 103 98 92 86
32 28 26 30 33 35 35 40 44 50 53 58 62 65 67 69 71 75 79 80 82 86 90 95 98 99 102 103 99 104 108 109 111 114 116 115 112 107 105 101 95 88 83
32 29 32 33 36 39 42 46 50 54 59 63 65 67 71 73 75 79 80 83 86 91 94 97 99 101 103 101 106 110 110 111 114 117 116 113 109 108 104 97 90 84 78
35 34 35 37 41 43 47 51 55 59 62 65 67 70 75 76 79 81 83 86 91 94 98 98 100 103 102 107 111 113 112 113 116 116 114 112 110 106 99 92 86 81 73
36 38 40 42 45 48 52 56 60 62 64 66 71 74 77 79 82 84 88 92 96 97 98 100 103 102 106 111 115 114 114 115 117 116 115 114 108 102 95 88 81 76 70
40 42 44 46 50 53 57 60 62 64 67 71 74 77 79 82 85 88 91 96 98 101 101 104 104 106 111 116 116 115 115 116 117 117 115 111 102 96 89 82 77 71 66
43 45 47 50 54 57 60 62 65 68 72 73 76 79 81 84 88 91 95 97 98 100 104 104 106 111 114 117 116 116 116 117 116 116 112 103 97 91 83 76 74 67 63
45 47 51 54 57 59 62 66 69 71 74 76 79 82 85 88 90 94 96 97 99 102 104 105 111 115 118 116 117 119 118 119 115 112 104 98 91 84 77 72 70 64 60
50 52 54 57 60 63 66 69 73 75 78 80 83 86 87 90 94 96 97 100 104 104 107 109 114 119 118 117 119 119 118 116 111 105 98 94 86 78 73 69 65 61 57
54 57 60 62 65 68 69 72 75 79 83 86 88 90 92 95 96 98 100 105 106 108 110 115 117 116 117 120 120 117 114 111 104 97 92 90 82 74 70 66 61 59 56
60 62 65 67 70 71 73 77 80 84 86 88 91 93 95 96 98 101 104 107 109 111 116 117 117 116 115 117 119 115 111 104 97 91 88 85 78 72 67 63 59 57 54
64 67 70 72 74 76 79 82 84 87 89 91 92 94 97 99 102 105 107 108 113 116 116 118 116 115 112 114 115 113 103 96 90 84 85 82 73 67 64 59 57 54 53
69 71 73 76 78 81 83 85 88 90 91 93 96 97 99 102 104 104 107 114 116 117 119 118 116 112 112 111 109 103 96 91 87 80 78 78 70 64 60 57 55 53 51

GFSMW_250_spd_036.txt.gz
Wind_Speed
32 24 27 21 23 25 38 30 36 41 46 45 50 52 49 56 56 65 60 69 68 68 68 72 78 80 84 79 81 80 78 74 69 68 67 71 75 79 81 82 81 81 83
28 30 26 32 19 29 35 39 40 44 46 49 51 49 60 62 56 59 62 64 64 69 75 79 74 72 73 76 77 80 70 68 71 71 71 73 74 80 82 83 84 86 89
32 32 33 34 34 29 33 43 36 43 51 52 52 62 60 59 65 65 66 69 76 75 75 72 77 76 77 76 75 68 68 69 70 73 76 78 81 83 80 84 89 91 92
37 37 38 33 32 37 39 37 38 42 53 51 52 58 59 63 65 69 69 71 73 71 73 69 71 69 66 65 66 68 70 73 73 75 80 83 85 85 88 86 89 93 94
22 34 41 39 42 39 38 41 42 44 43 48 54 56 61 60 61 65 63 63 66 66 67 64 62 62 63 68 68 71 74 75 77 80 79 81 84 88 92 94 96 92 93
26 26 26 31 38 40 42 43 44 44 47 45 41 45 44 44 46 46 50 53 57 56 55 57 60 64 66 67 71 74 76 79 80 81 81 83 86 89 92 94 95 95 98
28 26 28 29 31 33 33 34 30 29 29 31 34 39 39 45 47 51 52 54 54 56 56 60 64 66 67 70 73 77 78 78 77 78 82 87 90 94 95 95 96 99 99
32 33 31 31 32 33 33 32 33 31 26 31 35 36 38 42 48 52 55 56 57 59 60 63 64 66 67 75 76 78 78 79 79 81 86 91 93 95 95 96 99 100 103
28 28 31 33 33 33 32 33 33 33 34 36 41 44 42 46 51 54 57 59 60 63 62 63 65 68 75 80 81 80 81 82 83 86 91 95 96 96 97 98 102 102 104
33 32 32 32 33 35 34 34 33 36 36 41 48 52 55 55 54 55 56 56 61 64 63 66 68 71 81 83 82 83 85 86 88 90 94 97 99 99 100 103 106 107 110
32 34 34 34 35 35 35 34 35 37 37 38 47 53 52 51 50 52 54 57 62 64 66 69 72 80 84 84 84 86 89 93 95 95 96 100 100 103 105 108 108 112 114
35 37 38 38 38 38 39 41 39 36 38 41 43 45 53 50 47 51 57 61 63 63 66 73 79 83 84 84 87 91 94 96 97 98 100 100 100 105 108 109 112 116 119
39 40 40 42 41 42 42 39 38 39 39 41 42 43 42 46 50 56 61 63 67 70 73 79 82 83 83 87 91 96 99 98 101 103 102 104 106 110 113 113 118 121 122
40 43 42 41 40 38 39 39 41 42 43 40 39 42 47 49 55 59 64 69 71 74 78 81 80 83 86 88 94 98 100 102 103 105 107 108 111 114 115 119 123 123 123
33 33 34 36 37 37 38 40 45 45 42 43 45 48 51 55 60 64 69 73 75 77 79 82 84 87 88 93 96 98 100 101 104 107 107 110 113 114 118 123 125 124 121
37 38 40 38 39 40 42 41 40 43 48 50 52 54 58 62 65 69 73 74 76 79 82 85 88 90 94 97 98 100 101 104 106 107 110 113 114 118 123 125 124 124 120
39 40 41 41 41 40 41 43 43 46 51 53 55 58 62 65 68 71 73 76 80 83 85 87 89 93 96 97 99 102 103 105 107 110 113 115 118 122 125 124 123 120 116
39 41 44 46 46 44 44 43 42 45 50 54 58 61 64 67 70 73 76 80 83 86 87 89 93 95 97 99 103 105 105 107 111 113 116 119 123 125 124 124 119 117 112
34 35 38 41 42 43 44 44 45 48 52 56 60 64 68 71 73 76 80 82 84 87 90 93 94 97 101 104 106 106 107 111 114 116 120 123 124 124 122 119 116 114 108
35 35 36 38 40 42 45 47 50 53 57 60 64 67 70 72 74 77 80 83 86 88 90 93 97 100 103 105 107 110 112 114 116 120 120 121 122 122 118 116 113 109 100
40 42 42 41 41 43 46 50 54 56 59 60 63 66 69 72 75 77 80 83 86 89 92 96 98 100 103 107 111 114 114 115 114 115 117 119 118 117 115 111 107 98 92
45 45 44 44 45 48 50 52 54 57 59 62 64 67 70 73 76 79 81 83 85 89 93 98 101 103 105 108 110 112 113 115 114 112 112 112 113 111 109 104 96 89 85
48 48 48 48 49 49 51 53 56 58 61 63 66 68 70 72 74 77 80 83 89 93 96 99 101 103 104 106 108 111 112 114 115 114 111 109 108 106 99 94 90 84 79
48 49 50 50 51 53 54 56 57 60 62 63 66 69 73 76 77 79 82 87 94 98 99 99 101 104 107 106 104 104 107 109 110 109 110 110 105 97 93 88 83 79 72
48 48 48 47 48 50 53 57 60 63 65 67 70 71 72 76 79 83 88 93 98 102 100 100 100 99 100 101 104 104 104 105 104 103 103 99 95 90 87 83 78 73 69
51 49 48 48 50 53 55 58 61 64 67 70 71 73 79 83 87 90 92 98 104 103 100 99 98 101 102 103 104 104 105 104 101 95 91 88 86 84 80 76 73 69 65